TimeMST,TemperatureF,Dew PointF,Humidity,Sea Level PressureIn,VisibilityMPH,Wind Direction,Wind SpeedMPH,Gust SpeedMPH,PrecipitationIn,Events,Conditions,WindDirDegrees,DateUTC
12:53 AM,33.1,28.9,85,29.91,10.0,Variable,5.8,-,N/A,,Clear,0,2011-11-08 07:53:00
1:53 AM,33.1,28.0,82,29.92,10.0,NW,6.9,-,N/A,,Clear,320,2011-11-08 08:53:00
2:53 AM,32.0,26.1,79,29.94,10.0,NW,4.6,-,N/A,,Clear,320,2011-11-08 09:53:00
3:53 AM,30.9,25.0,79,29.96,10.0,NW,6.9,-,N/A,,Clear,320,2011-11-08 10:53:00
4:53 AM,30.9,25.0,79,30.01,10.0,NW,6.9,-,N/A,,Clear,320,2011-11-08 11:53:00
5:53 AM,27.0,23.0,85,30.05,10.0,Calm,Calm,-,N/A,,Clear,0,2011-11-08 12:53:00
6:53 AM,30.0,23.0,75,30.07,10.0,Calm,Calm,-,N/A,,Clear,0,2011-11-08 13:53:00
7:53 AM,33.1,25.0,72,30.11,10.0,Calm,Calm,-,N/A,,Clear,0,2011-11-08 14:53:00
8:53 AM,36.0,25.0,64,30.12,10.0,West,6.9,-,N/A,,Clear,280,2011-11-08 15:53:00
9:53 AM,39.0,25.0,57,30.12,10.0,WNW,11.5,-,N/A,,Clear,290,2011-11-08 16:53:00
10:53 AM,42.1,24.1,49,30.13,10.0,NW,8.1,18.4,N/A,,Clear,320,2011-11-08 17:53:00
11:53 AM,44.1,25.0,47,30.12,10.0,WNW,13.8,-,N/A,,Clear,300,2011-11-08 18:53:00
12:53 PM,45.0,24.1,44,30.12,10.0,NW,11.5,21.9,N/A,,Clear,310,2011-11-08 19:53:00
1:53 PM,44.1,24.1,45,30.12,10.0,WNW,11.5,21.9,N/A,,Partly Cloudy,300,2011-11-08 20:53:00
2:53 PM,45.0,23.0,42,30.13,10.0,WNW,12.7,18.4,N/A,,Mostly Cloudy,290,2011-11-08 21:53:00
3:53 PM,44.1,21.9,42,30.16,10.0,WNW,12.7,-,N/A,,Partly Cloudy,290,2011-11-08 22:53:00
4:53 PM,41.0,23.0,49,30.19,10.0,WNW,8.1,-,N/A,,Clear,300,2011-11-08 23:53:00
5:53 PM,33.1,23.0,66,30.26,10.0,Calm,Calm,-,N/A,,Clear,0,2011-11-09 00:53:00
6:53 PM,30.9,23.0,72,30.27,10.0,Calm,Calm,-,N/A,,Clear,0,2011-11-09 01:53:00
7:53 PM,33.1,21.9,64,30.28,10.0,SE,3.5,-,N/A,,Clear,130,2011-11-09 02:53:00
8:53 PM,25.0,19.9,81,30.32,10.0,Calm,Calm,-,N/A,,Clear,0,2011-11-09 03:53:00
10:53 PM,26.1,21.9,84,30.34,10.0,Calm,Calm,-,N/A,,Clear,0,2011-11-09 05:53:00
11:53 PM,24.1,21.0,88,30.34,10.0,ENE,4.6,-,N/A,,Partly Cloudy,60,2011-11-09 06:53:00